Location: Austin
(30.3000°N, 97.7500°W)
Time: 03:25:25
(UTC-06:00)

NOSS 0 Rocket - Pass Details

Date: 20 November 2023
Orbit: 933 x 955 km, 70.0° (Epoch: 04 December)

Event Time Altitude Azimuth Distance (km) Brightness Sun altitude
Rises 19:16:46 0° 336° (NNW) 3,626 7.2 -22.4°
Reaches altitude 10° 19:19:19 10° 334° (NNW) 2,675 6.5 -23.0°
Maximum altitude 19:25:30 72° 252° (WSW) 993 4.1 -24.3°
Drops below altitude 10° 19:31:36 10° 169° (SSE) 2,647 6.2 -25.6°
Sets 19:34:07 0° 167° (SSE) 3,586 6.9 -26.1°
